TimeEDT,TemperatureF,Dew PointF,Humidity,Sea Level PressureIn,VisibilityMPH,Wind Direction,Wind SpeedMPH,Gust SpeedMPH,PrecipitationIn,Events,Conditions,WindDirDegrees,DateUTC
12:51 AM,46.0,45.0,96,30.06,10.0,Calm,Calm,-,N/A,,Clear,0,2012-09-16 04:51:00
1:51 AM,43.0,42.1,97,30.06,10.0,Calm,Calm,-,N/A,,Clear,0,2012-09-16 05:51:00
2:51 AM,42.1,41.0,96,30.05,10.0,Calm,Calm,-,N/A,,Clear,0,2012-09-16 06:51:00
3:51 AM,41.0,39.9,96,30.05,10.0,Calm,Calm,-,N/A,,Clear,0,2012-09-16 07:51:00
4:51 AM,39.0,37.9,96,30.04,10.0,Variable,3.5,-,N/A,,Clear,0,2012-09-16 08:51:00
5:51 AM,39.9,37.9,93,30.06,10.0,Calm,Calm,-,N/A,,Clear,0,2012-09-16 09:51:00
6:51 AM,37.9,37.0,97,30.08,10.0,Calm,Calm,-,N/A,,Clear,0,2012-09-16 10:51:00
7:51 AM,48.0,46.0,93,30.09,10.0,Calm,Calm,-,N/A,,Clear,0,2012-09-16 11:51:00
8:51 AM,54.0,44.1,69,30.10,10.0,Variable,5.8,-,N/A,,Clear,0,2012-09-16 12:51:00
9:51 AM,55.9,42.1,60,30.09,10.0,WNW,8.1,-,N/A,,Clear,300,2012-09-16 13:51:00
10:51 AM,60.1,41.0,49,30.08,10.0,WNW,12.7,19.6,N/A,,Clear,290,2012-09-16 14:51:00
11:51 AM,62.1,39.0,43,30.06,10.0,WNW,12.7,20.7,N/A,,Clear,290,2012-09-16 15:51:00
12:51 PM,64.9,36.0,34,30.05,10.0,NW,11.5,21.9,N/A,,Clear,320,2012-09-16 16:51:00
1:51 PM,64.9,37.0,36,30.03,10.0,NW,10.4,16.1,N/A,,Clear,320,2012-09-16 17:51:00
2:51 PM,66.9,36.0,32,30.01,10.0,Variable,6.9,16.1,N/A,,Clear,0,2012-09-16 18:51:00
3:51 PM,68.0,36.0,31,30.00,10.0,NW,11.5,17.3,N/A,,Clear,310,2012-09-16 19:51:00
4:51 PM,68.0,34.0,28,29.99,10.0,NW,10.4,-,N/A,,Clear,320,2012-09-16 20:51:00
5:51 PM,66.0,33.1,29,30.00,10.0,WNW,8.1,-,N/A,,Clear,300,2012-09-16 21:51:00
6:51 PM,60.1,34.0,38,30.01,10.0,WNW,4.6,-,N/A,,Clear,300,2012-09-16 22:51:00
7:51 PM,51.1,39.0,63,30.03,10.0,Calm,Calm,-,N/A,,Clear,0,2012-09-16 23:51:00
8:51 PM,46.0,43.0,89,30.04,10.0,Calm,Calm,-,N/A,,Clear,0,2012-09-17 00:51:00
9:51 PM,46.0,42.1,86,30.04,10.0,Calm,Calm,-,N/A,,Clear,0,2012-09-17 01:51:00
10:51 PM,43.0,41.0,93,30.05,10.0,Calm,Calm,-,N/A,,Clear,0,2012-09-17 02:51:00
11:51 PM,41.0,39.9,96,30.05,10.0,Calm,Calm,-,N/A,,Clear,0,2012-09-17 03:51:00